Date String (YYYY-MM-DD hh:mm:ss) UTC,Instrument flags,absolute air pressure of the measurement (hPa),sample flow rate (lpm),inlet stack bypass flow (lpm),air temperature of the measurement (°C),ambient temperature measured by the external sensor (°C),aerosol sample conditioner tube jacket temperature (°C),OPC LED temperature (°C),internal box temperature (°C),relative humidity of the measurement (%),span deviation,mass concentration of particles derived from Lorenz-Mie calculation of OPC scattering (μg/m³),mass concentration of particles derived from Lorenz-Mie calculation of OPC scattering (μg/m³),mass concentration of particles derived from Lorenz-Mie calculation of OPC scattering (μg/m³)
DateTimeUTC,F1_M11,P_M11,Q1_M11,Q2_M11,T1_M11,T2_M11,T3_M11,T4_M11,T5_M11,U1_M11,ZSPAN_M11,X0_M11,X2_M11,X1_M11
2024-02-16 18:00:00,SystemResetWarning,0829.8,5.01,000.00,018.2,017.5,000.0,027.0,020.0,18.6,0002.1,0009.51,0006.42,0006.15
2024-02-16 18:01:00,SystemResetWarning,0829.8,5.01,000.00,018.2,017.5,000.0,027.0,020.0,18.6,0001.9,0009.57,0006.40,0006.14
2024-02-16 18:02:00,SystemResetWarning,0829.8,4.99,000.00,018.2,017.5,000.0,027.0,020.0,18.7,0002.0,0009.57,0006.38,0006.12
2024-02-16 18:03:00,SystemResetWarning,0829.8,4.99,000.00,018.2,017.5,000.0,027.0,020.0,18.8,0001.9,0009.57,0006.36,0006.11
2024-02-16 18:04:00,SystemResetWarning,0829.8,5.02,000.00,018.2,017.5,000.0,026.9,020.0,18.9,0001.8,0009.51,0006.33,0006.09
2024-02-16 18:05:00,SystemResetWarning,0829.8,5.01,000.00,018.2,017.5,000.0,026.9,020.0,18.8,0001.2,0009.11,0006.29,0006.07
2024-02-16 18:06:00,SystemResetWarning,0829.8,4.99,000.00,018.2,017.5,000.0,027.0,020.0,18.9,0000.7,0008.91,0006.26,0006.05
2024-02-16 18:07:00,SystemResetWarning,0829.8,5.01,000.00,018.2,017.5,000.0,027.0,020.1,18.8,0000.8,0008.80,0006.21,0006.02
2024-02-16 18:08:00,SystemResetWarning,0829.8,5.02,000.00,018.3,018.1,000.0,027.0,020.4,18.6,0000.8,0008.85,0006.19,0006.00
2024-02-16 18:09:00,SystemResetWarning,0829.8,4.98,000.00,018.6,018.9,000.0,027.1,020.8,18.3,0001.1,0009.28,0006.20,0005.99
2024-02-16 18:10:00,SystemResetWarning,0829.8,4.99,000.00,018.7,018.9,000.0,027.0,020.7,18.1,0001.1,0009.34,0006.22,0006.00
2024-02-16 18:11:00,SystemResetWarning,0829.7,5.01,000.00,018.6,018.7,000.0,026.9,020.4,18.2,0001.1,0009.33,0006.23,0006.01
2024-02-16 18:12:00,SystemResetWarning,0829.7,5.01,000.00,018.5,018.5,000.0,026.9,020.2,18.2,0001.0,0009.27,0006.22,0006.01
2024-02-16 18:13:00,SystemResetWarning,0829.6,5.00,000.00,018.5,018.3,000.0,026.9,020.1,18.3,0000.8,0009.26,0006.20,0005.99
2024-02-16 18:14:00,SystemResetWarning,0829.7,5.00,000.00,018.4,018.2,000.0,026.9,020.0,18.4,0000.8,0009.30,0006.20,0005.98
2024-02-16 18:15:00,SystemResetWarning,0829.7,4.99,000.00,018.4,018.0,000.0,026.9,020.0,18.4,0000.9,0009.32,0006.21,0005.98
2024-02-16 18:16:00,SystemResetWarning,0829.7,4.99,000.00,018.4,017.9,000.0,027.0,020.0,18.4,0001.2,0009.32,0006.21,0005.98
2024-02-16 18:17:00,SystemResetWarning,0829.6,5.00,000.00,018.3,017.8,000.0,027.0,020.0,18.4,0001.5,0009.33,0006.21,0005.98
2024-02-16 18:18:00,SystemResetWarning,0829.7,5.00,000.00,018.3,017.7,000.0,027.0,020.0,18.5,0001.3,0009.38,0006.24,0006.00
2024-02-16 18:19:00,SystemResetWarning,0829.6,5.00,000.00,018.3,017.6,000.0,027.0,020.0,18.5,0001.1,0009.41,0006.23,0006.00
2024-02-16 18:20:00,SystemResetWarning,0829.6,4.99,000.00,018.3,017.6,000.0,027.0,020.0,18.5,0001.1,0008.83,0006.21,0006.00
2024-02-16 18:21:00,SystemResetWarning,0829.6,5.00,000.00,018.3,017.5,000.0,027.0,020.0,18.6,0000.9,0008.80,0006.21,0006.00
2024-02-16 18:22:00,SystemResetWarning,0829.6,5.00,000.00,018.3,017.4,000.0,027.0,020.0,18.6,0000.9,0008.80,0006.20,0005.99
2024-02-16 18:23:00,SystemResetWarning,0829.6,5.00,000.00,018.3,017.4,000.0,027.0,020.0,18.6,0000.9,0008.85,0006.22,0005.99
2024-02-16 18:24:00,SystemResetWarning,0829.5,5.00,000.00,018.3,017.3,000.0,027.0,020.0,18.7,0001.0,0008.89,0006.25,0006.00
2024-02-16 18:25:00,SystemResetWarning,0829.4,5.02,000.00,018.3,017.6,000.0,027.1,020.1,18.7,0001.2,0008.90,0006.28,0006.03
2024-02-16 18:26:00,SystemResetWarning,0829.4,5.00,000.00,018.5,018.5,000.0,027.1,020.6,18.7,0001.1,0008.97,0006.30,0006.03
2024-02-16 18:27:00,SystemResetWarning,0829.5,5.00,000.00,018.7,019.0,000.0,027.1,020.9,18.5,0000.7,0009.08,0006.34,0006.05
2024-02-16 18:28:00,SystemResetWarning,0829.6,4.99,000.00,018.7,018.8,000.0,027.0,020.5,18.4,0000.6,0009.93,0006.36,0006.07
2024-02-16 18:29:00,SystemResetWarning,0829.5,4.99,000.00,018.6,018.6,000.0,027.0,020.3,18.6,0000.8,0009.91,0006.38,0006.10
2024-02-16 18:30:00,SystemResetWarning,0829.4,5.01,000.00,018.5,018.4,000.0,026.9,020.1,18.6,0000.8,0009.98,0006.42,0006.14
2024-02-16 18:31:00,SystemResetWarning,0829.4,5.01,000.00,018.5,018.2,000.0,026.9,020.0,18.6,0001.2,0010.01,0006.46,0006.18
2024-02-16 18:32:00,SystemResetWarning,0829.4,5.00,000.00,018.4,018.1,000.0,027.0,020.0,18.6,0001.2,0010.04,0006.49,0006.20
2024-02-16 18:33:00,SystemResetWarning,0829.4,5.00,000.00,018.4,017.9,000.0,027.0,020.0,18.6,0001.2,0010.12,0006.53,0006.23
2024-02-16 18:34:00,SystemResetWarning,0829.3,5.00,000.00,018.4,017.8,000.0,027.0,020.0,18.7,0001.3,0010.15,0006.56,0006.27
2024-02-16 18:35:00,SystemResetWarning,0829.3,5.00,000.00,018.4,017.7,000.0,027.0,020.0,18.7,0001.4,0010.08,0006.56,0006.29
2024-02-16 18:36:00,SystemResetWarning,0829.4,5.00,000.00,018.3,017.7,000.0,027.0,020.0,19.0,0001.3,0010.03,0006.56,0006.30
2024-02-16 18:37:00,SystemResetWarning,0829.4,5.00,000.00,018.3,017.7,000.0,027.0,020.0,18.9,0001.5,0009.98,0006.57,0006.32
2024-02-16 18:38:00,SystemResetWarning,0829.4,5.00,000.00,018.3,017.6,000.0,027.0,020.0,19.0,0001.7,0009.97,0006.57,0006.34
2024-02-16 18:39:00,SystemResetWarning,0829.4,5.00,000.00,018.3,017.6,000.0,027.0,020.0,19.0,0001.7,0009.32,0006.57,0006.35
2024-02-16 18:40:00,SystemResetWarning,0829.4,5.00,000.00,018.3,017.5,000.0,027.0,020.0,18.9,0001.6,0009.02,0006.56,0006.35
2024-02-16 18:41:00,SystemResetWarning,0829.4,4.99,000.00,018.3,017.5,000.0,027.0,020.0,18.9,0001.7,0008.98,0006.54,0006.33
2024-02-16 18:42:00,SystemResetWarning,0829.4,5.01,000.00,018.3,017.4,000.0,027.0,020.0,18.9,0001.6,0009.01,0006.56,0006.34
2024-02-16 18:43:00,SystemResetWarning,0829.3,5.00,000.00,018.3,017.4,000.0,027.0,020.0,18.9,0001.3,0009.05,0006.57,0006.35
2024-02-16 18:44:00,SystemResetWarning,0829.3,5.00,000.00,018.3,017.4,000.0,027.0,020.0,18.9,0001.4,0009.08,0006.58,0006.36
2024-02-16 18:45:00,SystemResetWarning,0829.3,5.00,000.00,018.2,017.4,000.0,027.0,020.0,18.8,0001.4,0009.20,0006.60,0006.36
2024-02-16 18:46:00,SystemResetWarning,0829.3,5.00,000.00,018.2,017.3,000.0,027.0,020.0,18.9,0001.4,0009.55,0006.65,0006.39
2024-02-16 18:47:00,SystemResetWarning,0829.3,5.00,000.00,018.2,017.4,000.0,027.0,020.0,18.8,0001.2,0009.57,0006.66,0006.40
2024-02-16 18:48:00,SystemResetWarning,0829.2,5.01,000.00,018.4,018.1,000.0,027.1,020.4,18.6,0001.2,0009.53,0006.67,0006.42
2024-02-16 18:49:00,SystemResetWarning,0829.3,5.00,000.00,018.6,018.9,000.0,027.1,020.9,18.4,0001.3,0009.52,0006.67,0006.42
2024-02-16 18:50:00,SystemResetWarning,0829.2,4.99,000.00,018.7,018.9,000.0,027.1,020.7,18.1,0001.2,0009.57,0006.67,0006.42
2024-02-16 18:51:00,SystemResetWarning,0829.1,4.98,000.00,018.6,018.7,000.0,027.0,020.5,18.3,0001.1,0009.62,0006.68,0006.42
2024-02-16 18:52:00,SystemResetWarning,0829.1,5.02,000.00,018.6,018.5,000.0,027.0,020.3,18.4,0001.0,0010.08,0006.70,0006.45
2024-02-16 18:53:00,SystemResetWarning,0829.1,5.00,000.00,018.5,018.4,000.0,026.9,020.2,18.5,0000.6,0010.44,0006.73,0006.47
2024-02-16 18:54:00,SystemResetWarning,0829.1,4.99,000.00,018.5,018.2,000.0,026.9,020.1,18.6,0000.5,0010.49,0006.73,0006.47
2024-02-16 18:55:00,SystemResetWarning,0829.1,4.99,000.00,018.4,018.0,000.0,027.0,020.0,18.9,0000.7,0010.42,0006.73,0006.47
2024-02-16 18:56:00,SystemResetWarning,0829.1,5.00,000.00,018.4,017.9,000.0,027.0,020.0,19.0,0000.4,0010.31,0006.71,0006.49
2024-02-16 18:57:00,SystemResetWarning,0829.1,5.00,000.00,018.4,017.7,000.0,027.0,020.0,18.9,0000.3,0009.94,0006.67,0006.48
2024-02-16 18:58:00,SystemResetWarning,0829.1,5.00,000.00,018.3,017.6,000.0,027.1,020.0,18.8,0000.3,0009.91,0006.65,0006.47
2024-02-16 18:59:00,SystemResetWarning,0829.1,5.00,000.00,018.3,017.6,000.0,027.1,020.0,18.7,0000.1,0009.91,0006.64,0006.46
